Location: Christianberg
(48.9086°N, 14.0209°E)
Time: 20:15:15
(UTC+00:00)

SL-4 R/B - Pass Details

Date: 23 October 2021
Orbit: 427 x 661 km, 51.6° (Epoch: 03 December)

Event Time Altitude Azimuth Distance (km) Brightness Sun altitude
Exits shadow 02:57:50 55° 88° (E) 700 2.7 -26.6°
Drops below altitude 10° 03:01:09 10° 103° (ESE) 1,832 5.5 -26.1°
Sets 03:03:18 0° 105° (ESE) 2,682 6.5 -25.8°
